Location: Alsip
(41.6689°N, 87.7387°W)
Time: 10:24:12
(UTC+00:00)

GEOS 3 Rocket - Pass Details

Date: 26 October 2020
Orbit: 770 x 850 km, 115.0° (Epoch: 25 November)

Event Time Altitude Azimuth Distance (km) Brightness Sun altitude
Exits shadow 00:57:18 51° 132° (SE) 1,042 3.8 -23.6°
Maximum altitude 00:58:43 82° 52° (NE) 847 3.5 -23.9°
Drops below altitude 10° 01:04:06 10° 326° (NW) 2,470 6.6 -24.9°
Sets 01:06:27 0° 325° (NW) 3,414 7.4 -25.3°
